Location: Breitenfeld
(46.8500°N, 15.6333°E)
Time: 00:12:59
(UTC+00:00)

Transit 4B - Pass Details

Date: 05 June 2022
Orbit: 948 x 1097 km, 32.4° (Epoch: 03 July)

Event Time Altitude Azimuth Distance (km) Brightness Sun altitude
Exits shadow 01:13:08 19° 210° (SSW) 2,190 9.7 -14.0°
Maximum altitude 01:14:43 21° 191° (SSW) 2,094 9.7 -13.9°
Drops below altitude 10° 01:19:28 10° 145° (SE) 2,745 10.6 -13.4°
Sets 01:22:45 0° 130° (SE) 3,667 11.5 -13.1°
